Regional Weather Roundup
Issued by NWS

Home | Current Version | Previous Version | Text Only | Print | Product List | Glossary Off
Versions: 1 2 3 4 5 6 7 8 9 10 11 12 13 14 15 16 17 18 19 20 21 22 23 24 25 26 27 28 29 30 31 32 33 34 35 36 37 38 39 40 41 42 43 44 45 46 47 48 49 50

000
ASUS43 KLMK 231602
RWRKY
KENTUCKY REGIONAL WEATHER ROUNDUP
NATIONAL WEATHER SERVICE LOUISVILLE KY
1200 PM EDT SAT MAY 23 2015

NOTE "FAIR" INDICATES FEW OR NO CLOUDS BELOW 12,000 FEET
WITH NO SIGNIFICANT WEATHER AND/OR OBSTRUCTIONS TO VISIBILITY.

KYZ001>023-026-027-061>063-070>075-231700-
WESTERN AND SOUTH CENTRAL KENTUCKY

CITY           SKY/WX    TMP DP  RH WIND       PRES   REMARKS
PADUCAH        PTSUNNY   74  50  42 SE9G18    30.32S
HENDERSON      PTSUNNY   73  48  40 S8        30.35R
OWENSBORO      PTSUNNY   74  52  46 SE12      30.36S
HOPKINSVILLE   PTSUNNY   71  50  48 SE8       30.34F
BOWLING GREEN  PTSUNNY   73  50  44 E8        30.36F
GLASGOW        NOT AVBL
$$

KYZ024-025-028>034-038-045-046-053-231700-
NORTH CENTRAL KENTUCKY

CITY           SKY/WX    TMP DP  RH WIND       PRES   REMARKS
LOUISVILLE/SDF PTSUNNY   72  53  51 SE7       30.37F
LOUISVILLE/LOU PTSUNNY   73  51  46 SE6       30.38F
FORT KNOX      PTSUNNY   72  51  48 E9        30.36F
$$

KYZ035>037-039>044-047>052-055>060-089>105-231700-
NORTHEAST KENTUCKY

CITY           SKY/WX    TMP DP  RH WIND       PRES   REMARKS
LEXINGTON      MOSUNNY   73  49  42 S7        30.40S
COVINGTON      PTSUNNY   73  51  46 CALM      30.40S
FRANKFORT      PTSUNNY   72  50  45 S9        30.39S
$$

KYZ054-064>069-076>088-106>120-231700-
SOUTHEAST KENTUCKY

CITY           SKY/WX    TMP DP  RH WIND       PRES   REMARKS
JACKSON        MOSUNNY   71  49  45 CALM      30.43S
LONDON         SUNNY     74  42  31 VRB6      30.41F
SOMERSET       NOT AVBL
MIDDLESBORO    SUNNY     70  49  46 CALM      30.43S
MONTICELLO     SUNNY     74  52  46 SE10G17   30.41F
$$




USA.gov is the U.S. government's official web portal to all federal, state and local government web resources and services.